#timestamp,LO_Frequency,Hit,StdDev 
1458802815.3,286046998.8,N
1458802835.1,286046998.6,N
1458802855.8,286047002.3,N
1458802875.7,286046998.3,N
1458802895.5,286046997.7,N
1458802915.3,286046997.0,N
1458802935.2,286046998.8,N
1458802955.9,286046998.7,N
1458802975.7,286046999.3,N
1458802995.6,286047001.2,N
1458803015.4,286047000.8,N
1458803035.2,286046996.9,N
1458803055.0,286046995.1,N
1458803056.0,286046995.1,N
1458803075.8,286046997.7,N
1458803095.6,286046995.8,N
1458803115.4,286046994.1,N
1458803135.3,286046994.1,N
1458803155.1,286046995.1,N
1458803175.8,286046998.7,N
1458803195.7,286046997.3,N
1458803215.5,286046997.4,N
1458803235.3,286046997.1,N
1458803255.2,286046993.6,Y
1458803275.0,286046997.7,P
1458803275.9,286046997.7,P
1458803295.7,286046995.3,P
1458803315.6,286046996.0,Y
1458803335.4,286046996.7,P
1458803355.2,286047001.1,P
1458803375.1,286046998.5,N
1458803376.0,286046998.5,N
1458803395.8,286046998.4,N
1458803415.6,286046997.7,N
1458803435.5,286046998.8,N
1458803455.3,286046999.3,N
1458803475.1,286046998.5,N
1458803495.9,286047003.5,Y
1458803515.7,286047002.0,P
1458803535.5,286046999.5,N
1458803555.4,286047001.3,N
1458803575.2,286047001.6,N
1458803595.0,286047000.0,N
1458803595.9,286047000.0,N
1458803615.8,286047003.3,N
1458803635.6,286047000.7,N
1458803655.4,286047002.1,N
1458803675.3,286047004.4,Y
1458803695.1,286047002.2,P
1458803696.0,286047002.2,P
1458803715.8,286047003.4,P
1458803735.7,286047001.8,N
1458803755.5,286046997.8,N
1458803775.3,286046994.9,N
1458803795.1,286046995.4,N
1458803815.9,286046997.6,N
1458803835.7,286047000.6,N
1458803855.5,286047002.2,N
1458803875.4,286046998.2,N
1458803895.2,286047000.6,N
1458803915.0,286047001.4,N
1458803915.9,286047001.4,N
1458803935.8,286047000.9,N
1458803955.6,286047001.1,N
1458803975.4,286047001.7,N
1458803995.3,286047003.0,N
1458804015.1,286046999.9,N
1458804016.0,286046999.9,N
1458804035.8,286046998.4,N
1458804055.7,286046998.2,N
1458804075.5,286047002.3,N
1458804095.3,286047001.5,N
1458804115.1,286047005.8,N
1458804135.9,286047009.1,Y
1458804155.7,286047009.1,P
1458804175.5,286047004.9,N
1458804195.4,286047005.5,N
1458804215.2,286047003.5,N
1458804235.0,286047002.1,N
1458804235.9,286047002.1,N
1458804255.8,286047005.7,N
1458804275.6,286047002.5,N
1458804295.4,286047001.3,N
1458804315.3,286047002.1,N
1458804335.1,286046999.7,N
1458804336.0,286046999.7,N
1458804355.8,286046998.2,N
1458804375.7,286047000.1,N
1458804395.5,286047003.0,N
1458804415.3,286047004.2,N
1458804435.2,286047002.9,N
1458804455.9,286047004.7,N
1458804475.7,286047009.1,Y
1458804495.6,286047004.8,P
1458804515.4,286047002.9,N
1458804535.2,286047000.3,N
1458804555.0,286046997.3,N
1458804556.0,286046997.3,N
1458804575.8,286046996.7,N
1458804595.6,286046995.2,N
1458804615.4,286046994.9,N
1458804635.3,286046997.3,N
1458804655.1,286046998.1,N
1458804675.8,286047000.4,N
1458804695.7,286046996.7,N
1458804715.5,286046998.7,N
1458804735.3,286047001.4,N
1458804755.2,286047002.4,N
1458804775.9,286047003.9,N
1458804795.7,286047001.7,N
1458804815.6,286046999.7,N
1458804835.4,286047004.4,N
1458804855.2,286047004.6,N
1458804875.0,286047002.6,N
1458804876.0,286047002.6,N
1458804895.8,286047002.1,N
1458804915.6,286047000.0,N
1458804935.4,286047004.2,N
1458804955.3,286047003.0,N
1458804975.1,286047003.5,N
1458804995.8,286047007.2,N
1458805015.7,286047005.1,N
1458805035.5,286047001.7,N
1458805055.3,286047002.7,N
1458805075.2,286047000.2,N
1458805095.9,286047002.5,N
1458805115.7,286047004.1,N
1458805135.6,286047003.2,N
1458805155.4,286047005.9,N
1458805175.2,286047000.2,N
1458805195.1,286046994.9,N
1458805196.0,286046994.9,N
1458805215.8,286047000.6,N
1458805235.6,286047001.4,N
1458805255.5,286047005.6,N
1458805275.3,286047005.2,N
1458805295.1,286047007.0,N
1458805315.8,286047007.2,N
1458805335.7,286047006.7,N
1458805355.5,286047012.4,Y
1458805375.3,286047009.5,P
1458805395.2,286047012.4,P
1458805415.0,286047011.1,N
1458805415.9,286047011.1,Y
1458805435.8,286047001.7,P
1458805455.6,286047003.6,N
1458805475.4,286047004.9,N
1458805495.2,286047006.8,N
1458805515.1,286047007.7,Y
1458805516.0,286047007.7,P
1458805535.8,286047004.6,P
1458805555.7,286047005.5,P
1458805575.5,286047005.9,Y
1458805595.3,286046995.1,P
1458805615.2,286046999.4,N
1458805635.9,286046996.5,N
1458805655.7,286047002.8,N
1458805675.5,286047003.5,N
1458805695.4,286047007.1,N
1458805715.2,286047003.4,N
1458805735.0,286047005.3,N
1458805735.9,286047005.3,N
1458805755.8,286047006.7,N
1458805775.6,286047006.8,N
1458805795.4,286047006.6,N
1458805815.3,286047005.2,N
1458805835.1,286047006.1,N
1458805836.0,286047006.1,N
1458805855.8,286047006.2,N
1458805875.7,286047003.8,N
1458805895.5,286047000.2,N
1458805915.3,286046999.5,N
1458805935.2,286046995.0,N
1458805955.9,286046999.2,N
1458805975.7,286046997.5,N
1458805995.5,286046996.1,N
1458806015.4,286046996.5,N
1458806035.2,286047000.6,N
1458806055.0,286046999.6,N
1458806055.9,286046999.6,N
1458806075.8,286046997.5,N
1458806095.6,286046994.9,N
1458806115.4,286046994.2,N
1458806135.3,286046994.6,N
1458806155.1,286046992.6,N
1458806156.0,286046992.6,N
1458806175.8,286046991.5,N
1458806195.7,286046989.1,N
1458806215.5,286046988.0,N
1458806235.3,286046987.1,N
1458806255.2,286046990.3,N
1458806275.9,286046990.9,N
1458806295.7,286046987.2,N
1458806315.6,286046993.2,N
1458806335.4,286046992.9,N
1458806355.2,286046994.4,N
1458806375.0,286046999.4,N
1458806376.0,286046999.4,N
1458806395.8,286046995.3,N
